カタログに戻る

CZ-6A DEB

運用中PO
NORAD 60671·DEBRIS·🇨🇳 China

打ち上げ Aug 6, 2024 から Taiyuan Satellite Launch Center

Loading…

次のパス (今後24時間)

TLE

最新Source: Space-Track

元期: Sep 14, 2026, 11:09 UTC

1 60671U 24140BY  26257.46527566  .00000261  00000-0  15626-3 0  9996
2 60671  89.0407 271.8022 0203237 315.4524  43.0466 13.94927664106802

AllMySatでCZ-6A DEBをリアルタイム追跡

Download on the App Store